Showing default

EMISAT, 44078

Orbit data source: Space-Track

EMISAT, 44078 is a payload satellite owned by ISRO (IN) in SSO that was launched on Mon, 01 Apr 2019 UTC via a PSLV-QL launch vehicle from the Sirharikota (SRI). Payload-class satellites include a variety of spacecraft equipped with specific instruments for various scientific and technological missions. These include communications satellites like Starlink; space stations such as the ISS; scientific satellites like the Hubble; Earth observation satellites from companies like Planet Labs, Umbra, and HawkEye 360; GPS; miniature CubeSats for education and research; and military/defense satellites.

Loading next visibility...
Identifier
44078, 2019-018A
Orbit
SSO
Country
Flag of ININ / IND
Related business
Manufacturer
ISRO
Mission
Operational Defense Sigint
Bus & Motor
SSB-2, AOCS
Mass
436 kg wet, ~380 kg dry
Launch date (UTC)
2019-04-01 (7 years ago)
Launch vehicle
PSLV-QL
Launch site
Sirharikota (SRI)
Object type
Payload
Rocket body
Debris
Shape & HBR
Box + 2 Pan, 3.0 m
Radar Cross Section
4.485 m², Large (>1 m²)

Expand to show TLE details & history
Last TLE update: 9 hours ago

TLE from 9 hours ago
0 EMISAT
1 44078U 19018A   25298.94965529  .00000358  00000-0  11834-3 0  9993
2 44078  98.5002 353.6225 0018603 200.6335 159.4106 14.43646613346267
Epoch: 2025-10-25T22:47Z
TLE epoch observation values (Epoch: 2025-10-25T22:47:30.217Z)
Latitude
0.00001°
Longitude
-22.82627°
Altitude
761.842 km
Speed
7.467 km/s
True Right ascension
23h 34m 29s
True Declination
0° 00' 00"
Sunlit
Object was in full shadow at epoch
Visualization orbit readout
Latitude
Unknown
Longitude
Unknown
Altitude
Unknown
Speed
Unknown
Apparent Right ascension
Unknown
Apparent Declination
Unknown
Sunlit
N/A
Visualization observer readout
Local Sidereal Time
03:21:52
Azimuth
Unknown
Elevation
Unknown
Doppler factor
Unknown
Orbital elements
Apogee altitude
756.841 km
Perigee altitude
730.344 km
Semi-major axis
7,121.729 km
Eccentricity
0.00186
Inclination
98.5002°
RAAN
353.6225°
Arg. of periapsis
200.6335°
True anomaly
159.4854°
Mean anomaly
159.4106°
Eccentric anomaly
159.44802°
Mean motion
3.61131 °/min
Orbital period
99.69 mins
BSTAR
0.00011834
Loading maneuver chart data...
Computing Atmospheric mass density...

Documentation

Showing up to 5 results
|